Flight Track Log - Related Links

Times and Time Zones

All times are in EDT time to prevent confusion due to time zone crossing. See the N89KB flight status page for this flight to view local times or setup timezone preferences in your user account.

Time Position Orientation Groundspeed Altitude Reporting Facility
EDT Latitude Longitude Course Direction KTS MPH feet Rate Location/Type
Sun 04:39:45 PM 34.6217 -84.5486 80° East 147 169 10,700  Level Atlanta Center
Sun 04:40:45 PM 34.6261 -84.5033 83° East 137 158 11,000 150 Climbing Atlanta Center
Sun 04:41:45 PM 34.6347 -84.4478 79° East 149 171 11,000  Level Atlanta Center
Sun 04:42:45 PM 34.6389 -84.3897 85° East 156 180 11,000  Level Atlanta Center
Sun 04:43:45 PM 34.6456 -84.3317 82° East 163 188 11,000  Level Atlanta Center
Sun 04:44:00 PM 34.7306 -84.6190 80° East  Level FlightAware Approximate
Sun 04:44:45 PM 34.6519 -84.2761 82° East 168 193 11,000  Level Atlanta Center
Sun 04:45:45 PM 34.6581 -84.2231 82° East 168 193 11,000  Level Atlanta Center
Sun 04:46:45 PM 34.6644 -84.1700 82° East 163 188 11,000  Level Atlanta Center
Sun 04:47:45 PM 34.6708 -84.1144 82° East 163 188 11,000  Level Atlanta Center
Sun 04:48:45 PM 34.6750 -84.0564 85° East 163 188 11,000  Level Atlanta Center
Sun 04:49:45 PM 34.6814 -84.0008 82° East 163 188 11,000  Level Atlanta Center
Sun 04:50:45 PM 34.6875 -83.9403 83° East 163 188 11,000 -150 Level Atlanta Center
Sun 04:51:45 PM 34.6958 -83.8694 82° East 177 204 10,700 -400 Descending Atlanta Center
Sun 04:52:45 PM 34.7019 -83.8114 83° East 184 212 10,200 -500 Descending Atlanta Center
Sun 04:53:45 PM 34.7081 -83.7508 83° East 178 205 9,700 -500 Descending Atlanta Center
Sun 04:54:45 PM 34.7142 -83.6950 82° East 178 205 9,200 -450 Descending Atlanta Center
Sun 04:55:45 PM 34.7181 -83.6319 86° East 178 205 8,800 -450 Descending Atlanta Center
Sun 04:56:45 PM 34.7264 -83.5789 79° East 173 199 8,300 -450 Descending Atlanta Center
Sun 04:57:45 PM 34.7303 -83.5258 85° East 173 199 7,900 -400 Descending Atlanta Center
Sun 04:58:45 PM 34.7364 -83.4725 82° East 173 199 7,500 -450 Descending Atlanta Center
Sun 04:59:45 PM 34.7422 -83.4094 84° East 161 185 7,000 -300 Descending Atlanta Center
Sun 05:00:45 PM 34.7483 -83.3561 82° East 161 185 6,900  Descending Atlanta Center
Sun 05:01:45 PM 34.7522 -83.3056 85° East 150 173 7,000  Climbing Atlanta Center
Sun 05:02:45 PM 34.7581 -83.2525 82° East 156 180 6,900  Descending Atlanta Center
Sun 05:03:45 PM 34.7639 -83.1942 83° East 163 188 7,000 50 Climbing Atlanta Center
Sun 05:04:45 PM 34.7697 -83.1386 83° East 163 188 7,000  Level Atlanta Center
Sun 05:05:45 PM 34.7756 -83.0828 83° East 163 188 7,000 -50 Level Atlanta Center
Sun 05:06:45 PM 34.7836 -83.0247 80° East 163 188 6,900  Descending Atlanta Center
Sun 05:07:45 PM 34.7872 -82.9664 86° East 163 188 7,000  Climbing Atlanta Center
Sun 05:08:45 PM 34.7950 -82.9081 81° East 158 182 6,900 -350 Descending Atlanta Center
Sun 05:09:45 PM 34.7986 -82.8600 85° East 158 182 6,300 -600 Descending Atlanta Center
Sun 05:10:45 PM 34.8022 -82.8069 85° East 158 182 5,700 -650 Descending Atlanta Center
Sun 05:11:45 PM 34.8061 -82.7561 85° East 158 182 5,000 -350 Descending Atlanta Center
Sun 05:12:45 PM 34.8139 -82.7056 79° East 158 182 5,000  Level Atlanta Center
Sun 05:13:45 PM 34.8194 -82.6497 83° East 158 182 5,000  Level Atlanta Center
Sun 05:15:00 PM 34.8333 -82.5733 90° East  Level FlightAware Approximate
Sun 05:22:00 PM 34.8333 -82.3500 90° East  Level FlightAware Approximate
Sun 05:23:00 PM 34.8479 -82.3500 90° East  Level Estimated
Sun 05:24:00 PM 34.8479 -82.3500 90° East  Level Estimated
Sun 05:25:00 PM 34.8479 -82.3500 90° East  Level Estimated
Sun 05:26:00 PM 34.8479 -82.3500 90° East  Level Estimated
Sun 05:27:00 PM 34.8479 -82.3500 90° East  Level Estimated
Sun 05:28:00 PM 34.8479 -82.3500 90° East  Level Estimated

Login

Don't have an account? Register now (free) for customized features, flight alerts, and more!